Weather in Basakin

Russia / Volgograd Oblast     48°09′52″N   42°16′41″E
temp.,
°C
wind,
m/s
gust,
m/s
humid.,
%
clouds,
%
prec.,
mm/h
press.,
hPa
HPBL,
m
4 march, thu
thu400:00−2wnw48830 0.0 1021383
03:00−2w48790 0.0 1022290
06:00−2wsw510750 0.0 1021315
09:00+2wsw812530 0.0 1021707
12:00+5wsw913420 0.0 10191240
15:00+6wsw913470 0.0 10171308
18:00+3sw715590 0.0 1015583
21:00+2wsw817700 0.0 1015537
5 march, fri
fri500:00+2wsw8188337 0.0 1014645
03:00+2wsw8188858 0.0 1013682
06:00+2wsw8188773 0.0 1013736
09:00+3wsw8148387 0.0 1013899
12:00+5wsw81377100 0.0 1013904
15:00+6wsw81278100 0.0 1013942
18:00+5wsw51186100 0.3 1014609
21:00+5wsw41286100 0.4 1015610
6 march, sat
sat600:00+4sw51386100 0.1 1014648
03:00+4sw51184100 0.1 1013520
06:00+3ssw61381100 0.0 1012609
09:00+5sw81482100 0.0 1011733
12:00+6wsw71186100 0.1 1010768
15:00+3nw6894100 0.5 1010501
18:00+1nnw6880100 0.0 1012820
21:00−1nnw4781100 0.1 1015571
7 march, sun
sun700:00−2wnw349389 0.1 1017275
03:00−3nw8126887 0.4 1019804
06:00−4nw710714 0.0 1020952
09:00−3wnw786448 0.0 10221044
12:000wnw685174 0.0 10221187
15:00+1wsw694137 0.0 10211431
18:00−1sw6115333 0.0 1019432
21:00−2wsw8155941 0.0 1019589
8 march, mon
mon800:00−2sw8156340 0.0 1017687
03:00−1sw8156720 0.0 1016636
06:00−1wsw816650 0.0 1015631
09:00+2wsw10156134 0.0 10141110
12:00+5wsw11154763 0.0 10131769
15:00+6w10155081 0.0 10121949
18:00+3wsw6136790 0.0 1013485
21:00+1wsw5138776 0.1 1014579